Terug naar catalogus

HULIANWANG DIGUI-159

ActiefCommunicatieLEO
NORAD 68133·PAYLOAD·🇨🇳 China

Gelanceerd Mar 12, 2026 vanaf Wenchang Space Launch Site

Loading…

Volgende Passages (komende 24 uur)

TLE

VersSource: Space-Track

Epoch: Sep 14, 2026, 14:01 UTC

1 68133U 26047E   26257.58419218 -.00000099  00000-0  53308-4 0  9992
2 68133  50.0010  95.4438 0001231  62.1908 297.9089 13.29324293 24968

Volg HULIANWANG DIGUI-159 in realtime met AllMySat

Download on the App Store